Location: Hartman Creek State Park
(44.3257°N, 89.2134°W)
Time: 15:37:10
(UTC-05:00)

Cosmos 2263 Rocket - Visible Passes

Search period start: 01 October 2016 00:00
Search period end: 11 October 2016 00:00
Orbit: 825 x 847 km, 71.0° (Epoch: 30 September)

Date Brightness Start Highest point End Pass type
(mag) Time Alt. Az. Time Alt. Az. Time Alt. Az.
01 Oct 2.6 06:10:17 10° SSW 06:15:48 69° ESE 06:21:21 10° NNE visible
02 Oct 2.7 05:53:38 10° S 05:59:07 64° ESE 06:04:38 10° NNE visible
03 Oct 2.8 05:36:59 10° S 05:42:26 59° ESE 05:47:54 10° NNE visible
04 Oct 2.9 05:20:22 10° S 05:25:45 54° ESE 05:31:10 10° NNE visible
05 Oct 3.0 05:03:44 10° S 05:09:04 50° ESE 05:14:26 10° NE visible
06 Oct 3.1 04:47:41 13° S 04:52:23 46° ESE 04:57:41 10° NE visible
06 Oct 3.0 06:31:40 10° WSW 06:36:30 30° NW 06:41:22 10° N visible
07 Oct 3.2 04:32:34 22° SSE 04:35:43 42° ESE 04:40:56 10° NE visible
07 Oct 3.0 06:14:49 10° WSW 06:19:45 32° NW 06:24:43 10° N visible
08 Oct 3.3 04:17:16 30° SE 04:19:03 39° ESE 04:24:10 10° NE visible
08 Oct 2.9 05:59:01 15° WSW 06:03:01 34° NW 06:08:05 10° N visible
09 Oct 3.4 04:01:48 35° ESE 04:02:23 36° ESE 04:07:25 10° NE visible
09 Oct 2.8 05:43:33 23° WSW 05:46:16 36° NW 05:51:26 10° NNE visible
10 Oct 3.6 03:46:12 32° E 03:46:12 32° E 03:50:38 10° NE visible
10 Oct 2.7 05:27:56 32° W 05:29:32 39° WNW 05:34:46 10° NNE visible
